Weather in Caransebes

Romania     45°24′36″N   22°13′08″E
temp.,
°C
wind,
m/s
gust,
m/s
humid.,
%
clouds,
%
prec.,
mm/h
press.,
hPa
HPBL,
m
12 april, mon
mon1200:00+8e336877 0.0 102369
03:00+9e2462100 0.0 1022104
06:00+10e2363100 0.0 102159
09:00+12ese126426 0.0 1021151
12:00+18sw12429 0.0 1019879
15:00+20wnw2240100 0.0 10181377
18:00+20nw21465 0.0 1016755
21:00+13e22735 0.0 101736
13 april, tue
tue1300:00+10e237663 0.0 101754
03:00+12e2468100 0.0 101780
06:00+11se1171100 0.0 101720
09:00+13sse0167100 0.0 1017116
12:00+11nw2291100 0.8 1017257
15:00+9wnw2397100 1.9 1017240
18:00+7w3498100 1.0 1016372
21:00+6wnw2598100 4.8 1018374
14 april, wed
wed1400:00+4w2498100 3.1 1018641
03:00+3wsw2598100 3.9 1018817
06:00+2wsw1598100 0.4 1018680
09:00+2wsw2399100 1.8 1018275
12:00+2wsw2499100 1.5 1019259
15:00+2wsw2399100 2.7 1020297
18:00+2w2497100 0.9 1019473
21:00+1w249897 1.4 1021186
15 april, thu
thu1500:00+1w1295100 0.1 1021221
03:00+1ssw119699 0.2 1021158
06:000sw119799 0.1 1021112
09:00+1w1298100 0.4 1022221
12:00+3wnw2387100 0.5 1021765
15:00+5wnw3377100 1.1 10211025
18:00+6wnw237382 0.4 1019920
21:00+1e119073 0.8 102010
16 april, fri
fri1600:000e229567 0.0 102130
03:000e229377 0.0 102024
06:00+1ssw119079 0.0 102021
09:00+3sw13809 0.0 1021513
12:00+7wsw455896 0.1 10201554
15:00+7wnw3558100 0.4 10201383
18:00+7wnw246783 0.8 10201069
21:00+4ese228453 1.1 102024